Starlink 30944

operational
NORAD ID: 58451 Int'l Des: 2023-183 Owner: SPXS Country: US Constellation: starlink
LEOCIRCULAR

Starlink 30944について

説明を読み込み中...

リアルタイム位置

3D地球を読み込み中...

次回通過

高度履歴

Altitude vs Time

uPlot chart will show altitude changes over time

軌道要素

1 58451U 23183Q 25350.69280566 .00001081 00000-0 95084-4 0 9997
2 58451 43.0025 133.9378 0001221 271.1038 88.9664 15.02537261114202
Epoch: Dec 16, 2025 • Age: 23 hours

現在のステータス

高度 559.0 km
速度 7.58 km/s
衛星直下点 -0.56°S, 13.69°W
打ち上げ日 Nov 28, 2023
運用期間 2 years
タイプ internet

技術仕様

分類 Payload
質量 730.00 kg
乾燥質量 700.00 kg
総質量 730.00 kg
長さ 0.30 m
直径 4.10 m
スパン 29.00 m
形状 Box + pan
製造者 SPXS
バスタイプ Starlink V2M
フェーズステータス In Orbit
所有者/国 SPXS/US

大規模コンステレーション

Loading constellations...